Regional Weather Roundup
Issued by NWS

Home | Current Version | Previous Version | Graphics & Text | Print | Product List | Glossary On
Versions: 1 2 3 4 5 6 7 8 9 10 11 12 13 14 15 16 17 18 19 20 21 22 23 24 25 26 27 28 29 30 31 32 33 34 35 36 37 38 39 40 41 42 43 44 45 46 47 48 49 50
000
ASUS45 KCYS 311510
RWRWY

WYOMING REGIONAL WEATHER ROUNDUP
NATIONAL WEATHER SERVICE CHEYENNE WY
900 AM MDT MON AUG 31 2015

NOTE:  "FAIR" INDICATES FEW OR NO CLOUDS BELOW 12,000 FEET
WITH NO SIGNIFICANT WEATHER AND/OR OBSTRUCTIONS TO VISIBILITY.

WYZ001-311600-
YELLOWSTONE NATIONAL PARK

CITY           SKY/WX    TMP DP  RH WIND       PRES   REMARKS
LK YELLOWSTONE   N/A     51  24  34 MISG      30.25S
W YELLOWSTONE  NOT AVBL

$$
WYZ002>013-054>058-071-098>099-311600-
NORTHERN WYOMING

CITY           SKY/WX    TMP DP  RH WIND       PRES   REMARKS
JACKSON        FAIR      54  30  40 SE3       30.20S
CODY           FAIR      59  39  47 S6        30.05S
GREYBULL       FAIR      62  41  46 N6        30.01S
WORLAND        FAIR      62  45  53 N3        30.02R
SHERIDAN       FAIR      62  45  53 CALM      30.04R
BUFFALO        FAIR      61  44  53 S7        30.10S
GILLETTE       FAIR      59  48  67 CALM      30.06R
HULETT         FAIR      61  50  67 CALM      30.07R
NEWCASTLE      FAIR      61  50  67 NW14      30.02S

$$
WYZ014>020-022>026-101>103-311600-
CENTRAL WYOMING

CITY           SKY/WX    TMP DP  RH WIND       PRES   REMARKS
BIG PINEY      FAIR      51  27  39 CALM      30.25S
PINEDALE       FAIR      48  32  53 NW7       30.26S
DUBOIS         FAIR      54  21  28 NW13      30.20R
LANDER         FAIR      65  41  41 E3        30.08R
RIVERTON       FAIR      66  32  28 W7        30.10R
CASPER         FAIR      64  45  49 N5        30.10S
DOUGLAS        FAIR      67  45  45 N10       30.09R

$$
WYZ021-027>030-104>119-311600-
SOUTHERN WYOMING

CITY           SKY/WX    TMP DP  RH WIND       PRES   REMARKS
EVANSTON       FAIR      58  39  49 CALM      30.25R
KEMMERER       FAIR      46  30  53 N9        30.26S
FORT BRIDGER   MOSUNNY   55  48  76 W5        30.28R
ROCK SPRINGS   FAIR      57  50  77 W5        30.24R
DIXON          FAIR      60  53  78 SE5       30.26S
RAWLINS        FAIR      61  45  55 SW8       30.24R
SARATOGA       FAIR      61  52  72 SE8       30.25R
LARAMIE        FAIR      62  48  60 SW9       30.23R
CHEYENNE       FAIR      70  47  43 W15       30.15R
TORRINGTON     CLOUDY    73  53  49 N7        29.98S
PINE BLUFFS    FAIR      73  46  38 NW12      30.08S

$$


USA.gov is the U.S. government's official web portal to all federal, state and local government web resources and services.